{"data":{"norad_id":56356,"intl_designator":"2023-058AR","name":"STARLINK-5535","alt_names":[],"object_type":"PAYLOAD","status":"ACTIVE","operator":null,"country":"US","launch_date":"2023-04-27","launch_site_code":"AFWTR","launch_vehicle":null,"mission":null,"orbit_class":"UNKNOWN","rcs_meters":null,"size_class":null,"mass_kg":null,"dimensions":null,"purposes":["comms"],"wikipedia_slug":null,"has_3d_model":false,"image_url":null,"decayed_at":null,"tle_current":{"epoch":"2026-09-20T23:09:27.558720Z","epoch_age_seconds":68432,"freshness":"FRESH","line1":"1 56356U 23058AR  26263.96490230 -.00000144  00000+0 -21377-5 0  9990","line2":"2 56356  97.2837 260.6740 0001735  92.4502 267.6939 15.33435226187705","mean_motion":15.33435226,"eccentricity":0.0001735,"inclination_deg":97.2837,"raan_deg":260.674,"arg_perigee_deg":92.4502,"mean_anomaly_deg":267.6939,"bstar":-2.1377e-6,"rev_number":18770,"period_min":93.906803207872,"perigee_km":464.38487162423,"apogee_km":466.75963873578,"semimajor_km":6843.70925518,"source":"CELESTRAK","updated_at":"2026-09-21T09:00:33.428561Z"}}}